Regional Weather Roundup
Issued by NWS Upton, NY

Current Version | Previous Version | Graphics & Text | Print | Product List | Glossary Off
Versions: 1 2 3 4 5 6 7 8 9 10 11 12 13 14 15 16 17 18 19 20 21 22 23 24 25 26 27 28 29 30 31 32 33 34 35 36 37 38 39 40 41 42 43 44 45 46 47 48

000
ASUS41 KOKX 281207
RWROKX

REGIONAL WEATHER ROUNDUP
NATIONAL WEATHER SERVICE NEW YORK NY
800 AM EDT SAT MAR 28 2015

NOTE: "FAIR" INDICATES FEW OR NO CLOUDS BELOW 12,000 FEET WITH NO
SIGNIFICANT WEATHER AND/OR OBSTRUCTIONS TO VISIBILITY.

NYZ071-072-176-178-NJZ106-104-281300-
NEW YORK CITY METRO AREA


CITY           SKY/WX    TMP DP  RH WIND       PRES   REMARKS
CENTRAL PARK   CLOUDY    34  18  52 NW10G17   29.82R WCI  26
LAGUARDIA APRT CLOUDY    35  21  56 NW17      29.80R WCI  25
KENNEDY INTL   FLURRIES  36  20  52 NW17G25   29.79R WCI  26
NEWARK/LIBERTY CLOUDY    34  18  52 N15G24    29.81R WCI  24
BRNX BOT. GARD   N/A    N/A N/A N/A NW15      29.79R
TETERBORO      CLOUDY    33  19  56 NW8       29.80R WCI  26
$$

NYZ177-179-078>081-281300-
LONG ISLAND NEW YORK

CITY           SKY/WX    TMP DP  RH WIND       PRES   REMARKS
FARMINGDALE    LGT SNOW  34  25  69 N14G23    29.77R WCI  25
ISLIP          LGT SNOW  33  28  81 NW15      29.74R VSB 1   WCI  23
SHIRLEY        LGT SNOW  33  30  88 NW13      29.75R FOG     WCI  24
WESTHAMPTON    LGT SNOW  33  30  88 NW13      29.74R VSB 1   WCI  24
MONTAUK POINT    N/A     36  33  89 N9        29.71S WCI  29
$$

NYZ052-065-067-281300-
HUDSON VALLEY

CITY           SKY/WX    TMP DP  RH WIND       PRES   REMARKS
WHITE PLAINS   LGT SNOW  32  22  66 NW15      29.76R WCI  22
NEWBURGH       PTSUNNY   30  21  69 N12       29.82R WCI  21
MONTGOMERY     CLOUDY    30  18  60 NW10      29.81R WCI  21
POUGHKEEPSIE   CLOUDY    32  20  61 N8        29.82R WCI  25
ALBANY         FLURRIES  27  20  75 NW9       29.88R WCI  18
$$

NJZ001-105-106-008-010-013-015-019>022-104-281300-
NEW JERSEY

CITY           SKY/WX    TMP DP  RH WIND       PRES   REMARKS
NEWARK/LIBERTY CLOUDY    34  18  52 N15G24    29.81R WCI  24
TETERBORO      CLOUDY    33  19  56 NW8       29.80R WCI  26
CALDWELL       CLOUDY    31  17  56 N9        29.82R WCI  23
MORRISTOWN     MOSUNNY   30  19  64 N13G21    29.82R WCI  20
SOMERVILLE     MOSUNNY   32  17  54 N13G18    29.82R WCI  22
SUSSEX         MOSUNNY   29  16  58 N9        29.83R WCI  20
ANDOVER          N/A     29  17  61 N12G17    29.83R WCI  19
TRENTON        MOSUNNY   33  18  53 N9        29.82R WCI  25
MILLVILLE      CLOUDY    35  23  61 NW10      29.84R WCI  27
ATLANTIC CITY  CLOUDY    35  21  56 N13       29.81R WCI  26
WRIGHTSTOWN    PTSUNNY   33  20  59 NW15      29.81R WCI  22
TOMS RIVER     CLOUDY    34  19  55 NW10      29.82R WCI  26
BELMAR         CLOUDY    34  18  51 NW17G23   29.79R WCI  23
$$

PAZ047>061-062-071-281300-
EASTERN PENNSYLVANIA

CITY           SKY/WX    TMP DP  RH WIND       PRES   REMARKS
PHILADELPHIA   PTSUNNY   34  18  52 N17G28    29.85R WCI  23
ALLENTOWN      PTSUNNY   32  18  56 NW12      29.86R WCI  23
SCRANTON       CLOUDY    26  15  63 N12       29.87R WCI  16
$$

CTZ002-004>006-009-010-012-RIZ004-006-007-MAZ004-011-015-281300-
SOUTHERN NEW ENGLAND
 IN CT

CITY           SKY/WX    TMP DP  RH WIND       PRES   REMARKS
BRADLEY INTL   LGT SNOW  35  28  75 N8        29.76R WCI  29
HARTFORD       LGT SNOW  34  29  82 N9        29.76R WCI  27
DANBURY        LGT SNOW  31  21  66 VRB7      29.78S WCI  24
WTRBRY/OXFORD  CLOUDY    30  21  69 N14       29.75S WCI  20
BRIDGEPORT     LGT SNOW  34  27  75 NW12      29.76R WCI  25
MERIDEN        LGT SNOW  34  28  79 N9        29.76R WCI  27
NEW HAVEN      LGT SNOW  34  29  82 NW8       29.74R WCI  27
CHESTER        LGT SNOW  34  32  93 N13G20    29.72S VSB 1   WCI  25
GROTON         LGT RAIN  35  34  96 N9        29.71S WCI  28
WILLIMANTIC    FLURRIES  36  29  75 N6        29.74R WCI  31

 IN RI

CITY           SKY/WX    TMP DP  RH WIND       PRES   REMARKS
PROVIDENCE     LGT RAIN  36  32  85 N15       29.72R FOG     WCI  27
BLOCK ISLAND   CLOUDY    36  34  93 N8        29.68S WCI  29
WESTERLY       LGT RAIN  35  33  92 N9        29.71R WCI  28

 IN MA

CITY           SKY/WX    TMP DP  RH WIND       PRES   REMARKS
BOSTON         FLURRIES  35  31  85 NE16      29.75R WCI  25
WORCESTER      FLURRIES  33  26  75 N8        29.71R WCI  26
WESTFIELD      FLURRIES  34  26  72 N9        29.76R WCI  27
PROVINCETOWN   CLOUDY    37  34  87 NE10      29.70S WCI  30
NANTUCKET      LGT RAIN  39  35  86 NE17      29.65S WCI  30
$$

ANZ330-335-338-340-345-350-353-355-281300-
COASTAL MARINE OBSERVATIONS


STATION/POSITION TIME  SKY/WX   TEMP    WIND        PRES    VSBY  WAVE
                                AIR SEA DIR/SP/G                  HT/PER
                 (UTC)          (F)     (DEG/KT/KT) (MB)    (MI)  (FT/S)
NY HARB ENTRANCE 1150            37 38  330/ 21/ 25 1007.7          4/11
4S FIRE IS       1103               36                N/A           5/12
20S FIRE ISLAND  1050               38              1007.1          6/11
23SW MTP         1150                                 N/A           8/11
HUDSON CANYON    NOT AVBL
EXECUTION ROCKS  NOT AVBL
WESTERN LI SOUND NOT AVBL
CENTRAL LI SOUND NOT AVBL
EASTERN LI SOUND NOT AVBL
ROBBINS REEF     1100            35     340/ 15/ 19 1007.4
$$


>>>>>>>>>>>>>>>>>>>>>>>>>>>> KEY <<<<<<<<<<<<<<<<<<<<<<<<<<<
>                                                          <
>     SKY/WX - SKY CONDITION/PRESENT WEATHER               <
>     TMP    - TEMPERATURE IN FAHRENHEIT                   <
>     DP     - DEWPOINT IN FAHRENHEIT                      <
>     RH     - RELATIVE HUMIDITY IN PERCENT                <
>     WIND   - DIRECTION AND SPEED IN MPH                  <
>     PRES   - MEAN SEA LEVEL PRESSURE IN INCHES OF HG     <
>     WCI    - WIND CHILL INDEX                            <
>     VSB    - VISIBILITY IN MILES                         <
>     HX     - HEAT INDEX                                  <
>     TC     - TEMPERATURE IN CELSIUS                      <
>     VRB    - VARIABLE WIND DIRECTION                     <
>                                                          <
>>>>>>>>>>>>>>>>>>>>>>>>>>>> KEY <<<<<<<<<<<<<<<<<<<<<<<<<<<




USA.gov is the U.S. government's official web portal to all federal, state and local government web resources and services.